DELTA 1 DEB, 42081

Orbit data source: Space-Track

DELTA 1 DEB, 42081 is space debris in SSO originally from a launch on Sun, 15 Dec 1968 UTC launched from the Air Force Western Test Range (AFWTR). Debris objects in space refer to the collection of defunct objects orbiting the Earth. Examples of debris include non-operational satellites, rocket bodies, and fragments generated from explosions, collisions, or faulty payload assembly.

Loading next visibility...
Identifier
42081, 1968-114H
Orbit
SSO
Country
Flag of USUS
Related business
Manufacturer
Aerojet
Mission
Spacecraft
Bus & Motor
Unknown
Mass
Unknown
Launch date (UTC)
Icon of a cake. It is the launch day of the satellite!1968-12-15 (57 years ago)
Launch vehicle
Unknown
Launch site
Air Force Western Test Range (AFWTR)
Object type
Payload
Rocket body
Debris
Shape & HBR
Unknown shape, 0.1 m
Radar Cross Section
Small (<0.1 m²)

Expand to show TLE details & history
Last TLE update: 4 days ago

TLE from 4 days ago
0 DELTA 1 DEB
1 42081U 68114H   25345.13285100  .00000073  00000-0  93373-3 0  9992
2 42081 101.6786 297.0383 0118027 336.7939  22.7819 12.31774838479617
Epoch: 2025-12-11T03:11Z
TLE epoch observation values (Epoch: 2025-12-11T03:11:18.326Z)
Latitude
-0.00003°
Longitude
169.11874°
Altitude
1,458.187 km
Speed
7.172 km/s
True Right ascension
19h 48m 09s
True Declination
0° 00' 00"
Sunlit
Object was in daylight at epoch
Visualization orbit readout
Latitude
Unknown
Longitude
Unknown
Altitude
Unknown
Speed
Unknown
Apparent Right ascension
Unknown
Apparent Declination
Unknown
Sunlit
N/A
Visualization observer readout
Local Sidereal Time
13:26:14
Azimuth
Unknown
Elevation
Unknown
Doppler factor
Unknown
Orbital elements
Apogee altitude
1,632.677 km
Perigee altitude
1,445.784 km
Semi-major axis
7,917.368 km
Eccentricity
0.0118
Inclination
101.6786°
RAAN
297.0383°
Arg. of periapsis
336.7939°
True anomaly
23.31283°
Mean anomaly
22.7819°
Eccentric anomaly
23.04664°
Mean motion
3.08086 °/min
Orbital period
116.85 mins
BSTAR
0.00093373
Loading maneuver chart data...
Computing Atmospheric mass density...
Loading historical data...
Loading historical data...
Loading historical data...
Loading historical data...
Loading historical data...
Loading historical data...
Loading historical data...

Documentation

Showing up to 5 results
|